Regional Weather Roundup
Issued by NWS

Home | Current Version | Previous Version | Text Only | Print | Product List | Glossary Off
Versions: 1 2 3 4 5 6 7 8 9 10 11 12 13 14 15 16 17 18 19 20 21 22 23 24 25 26 27 28 29 30 31 32 33 34 35 36 37 38 39 40 41 42 43 44 45 46 47 48 49 50

000
ASUS43 KMPX 111510
RWRMN
WEATHER ROUNDUP FOR MINNESOTA
NATIONAL WEATHER SERVICE TWIN CITIES/CHANHASSEN MN
900 AM CST MON DEC 11 2017


NOTE: "FAIR" INDICATES FEW OR NO CLOUDS BELOW 12,000 FEET WITH NO
SIGNIFICANT WEATHER AND/OR OBSTRUCTIONS TO VISIBILITY. N/A MEANS
CURRENT SKY AND/OR WEATHER CONDITIONS ARE NOT AVAILABLE.

MNZ060>063-068>070-111600-
   Twin Cities Metro

CITY           SKY/WX    TMP DP  RH WIND       PRES   REMARKS
TWIN CITIES    CLOUDY    31  30  96 CALM      29.72S FOG
ST PAUL        CLOUDY    30  29  96 CALM      29.74R FOG
CRYSTAL        CLOUDY    30  26  85 CALM      29.71S FOG
BLAINE         CLOUDY    32  30  93 CALM      29.71R FOG
LAKEVILLE        N/A     30  30 100 CALM      29.72R FOG
EDEN PRAIRIE   CLOUDY    32  29  88 SW5       29.71R WCI  27
SOUTH ST PAUL  LGT SNOW  30  30  99 CALM      29.72S
LAKE ELMO      FAIR      30  28  93 E3        29.73S FOG
$$
MNZ001>005-007-008-013>017-022>024-027-028-111600-
   Northwest Minnesota

CITY           SKY/WX    TMP DP  RH WIND       PRES   REMARKS
BEMIDJI        CLOUDY    25  23  90 N17G25    29.84R WCI  12
HALLOCK        FOG       21  19  93 N26G32    30.04R VSB 1   WCI   4
ROSEAU         CLOUDY    23  19  86 N22       29.95R WCI   8
WARROAD        CLOUDY    21  18  86 N22G31    29.94R FOG     WCI   5
THIEF RVR FALL LGT SNOW  23  21  92 N23G31    29.97R FOG     WCI   7
CROOKSTON      CLOUDY    25  21  86 N26G43    29.99R FOG     WCI   9
FOSSTON        CLOUDY    25  21  86 N24G36    29.91R FOG     WCI   9
DETROIT LAKES  CLOUDY    30  28  93 N23G37    29.87R WCI  17
MOORHEAD       DRIZZLE   28  25  86 N29G41    29.95R WCI  13
PARK RAPIDS    CLOUDY    31  27  85 N21G32    29.78R WCI  18
MAHNOMEN       CLOUDY    27  24  89 N24G31    29.89R WCI  12
$$
MNZ006-009>011-018-025>026-111600-
   North Central Minnesota

CITY           SKY/WX    TMP DP  RH WIND       PRES   REMARKS
BAUDETTE       CLOUDY    21  18  88 N22G29    29.88R WCI   5
FLAG ISLAND    CLOUDY    19  16  86 N25G33    29.92R HAZE    WCI   2
INTL FALLS     CLOUDY    20  15  81 N15       29.81R HAZE    WCI   6
WASKISH        CLOUDY    23  19  86 N10G20    29.87R WCI  12
BIG FORK       CLOUDY    25  21  86 N7        29.77R WCI  17
GRAND RAPIDS   CLOUDY    25  23  92 NW14      29.76R WCI  13
ORR            CLOUDY    19  16  86 NW6       29.74R WCI  11
COOK           CLOUDY    19  18  93 CALM      29.75R
WALKER         CLOUDY    27  23  86 N17G29    29.80R WCI  14
$$
MNZ012-019>021-037-111600-
   Northeast Minnesota

CITY           SKY/WX    TMP DP  RH WIND       PRES   REMARKS
DULUTH         LGT SNOW  22  21  96 W6        29.69R VSB 1   WCI  14
ELY            CLOUDY    19  18  93 CALM      29.72R
HIBBING        CLOUDY    20  18  92 N5        29.73R WCI  13
EVELETH        CLOUDY    19  16  86 NW3       29.73R
DULUTH HARBOR  SNOW      25  21  86 CALM      29.75R VSB 1/2
TWO HARBORS    LGT SNOW  27  21  80 CALM      29.70R
G MARAIS ARPRT MIX PCPN  18  14  86 CALM      29.67S
$$
MNZ029>031-032-039>041-046>048-054>057-064-111600-
   West Central Minnesota

CITY           SKY/WX    TMP DP  RH WIND       PRES   REMARKS
FERGUS FALLS   CLOUDY    30  28  93 N30G43    29.88R WCI  15
MORRIS         CLOUDY    36  32  87 N29G38    29.82R
ALEXANDRIA     CLOUDY    35  31  85 N18G33    29.79R WCI  24
ELBOW LAKE     CLOUDY    32  31  93 NW23G33   29.84R FOG     WCI  20
WADENA         CLOUDY    34  30  86 NW18G30   29.78R WCI  23
GLENWOOD       CLEAR     34  32  93 NW15      29.78R WCI  24
BENSON         CLOUDY    36  32  87 N22G33    29.82R
ORTONVILLE     CLOUDY    36  32  87 NW18G26   29.86R
MADISON        CLOUDY    39  36  87 NW24G32   29.85R FOG
WILLMAR        MOCLDY    36  34  93 NW16      29.79R
$$
MNZ033>034-036-042>043-049>051-058-059-111600-
   Central Minnesota

CITY           SKY/WX    TMP DP  RH WIND       PRES   REMARKS
ST CLOUD       CLOUDY    31  29  92 NW7       29.73R WCI  24
SAUK CENTRE    CLOUDY    33  31  91 NW15      29.76R WCI  23
PAYNESVILLE    CLOUDY    33  31  92 NW10      29.76R WCI  25
AITKIN         LGT SNOW  27  25  93 W5        29.72R WCI  21
PINE RIVER     CLOUDY    30  27  86 N16G26    29.79R WCI  19
BRAINERD       LGT SNOW  32  28  85 NW15      29.75R FOG     WCI  22
STAPLES        CLOUDY    34  30  86 NW14      29.76R WCI  24
LONG PRAIRIE   CLOUDY    32  32 100 W14       29.75R FOG     WCI  22
LITTLE FALLS   CLOUDY    32  28  86 NW5       29.75R WCI  27
LITCHFIELD     CLOUDY    36  30  80 NW10      29.75R
BUFFALO        CLOUDY    32  29  91 W6        29.74R WCI  26
MAPLE LAKE     CLOUDY    33  31  93 NW6       29.74R WCI  27
HUTCHINSON     CLOUDY    35  31  86 NW12      29.74R WCI  27
$$
MNZ037-044-045-052-053-111600-
   East Central Minnesota

CITY           SKY/WX    TMP DP  RH WIND       PRES   REMARKS
PRINCETON      CLOUDY    30  28  93 W3        29.73R FOG
MORA           CLOUDY    27  27 100 CALM      29.74R FOG
CAMBRIDGE      LGT SNOW  28  28 100 CALM      29.73R
RUSH CITY      CLOUDY    27  25  94 CALM      29.72R FOG
MOOSE LAKE     MIX PCPN  27  23  86 CALM      29.71R
HINCKLEY       CLOUDY    27  27 100 CALM      29.73R FOG
CLOQUET        LGT SNOW  25  21  86 CALM      29.70R VSB 1
MCGREGOR       CLOUDY    28  27  93 CALM      29.72R
$$
MNZ071>073-080-081-089-090-097-098-111600-
   Southwest Minnesota

CITY           SKY/WX    TMP DP  RH WIND       PRES   REMARKS
MONTEVIDEO     CLOUDY    37  34  87 N21G31    29.81R
GRANITE FALLS  CLOUDY    38  35  87 NW20G31   29.82R
CANBY          CLOUDY    39  35  85 W22G29    29.86R
MARSHALL       CLOUDY    38  34  85 NW21G33   29.81R
REDWOOD FALLS  CLOUDY    38  32  79 NW17G26   29.77R
OLIVIA         CLOUDY    36  32  87 NW16      29.77R
PIPESTONE      CLOUDY    36  32  87 NW25G35   29.83R
WINDOM           N/A     36  25  64 W20       29.76S
WORTHINGTON    CLOUDY    36  33  89 NW26G32   29.81R
JACKSON        MIX PCPN  36  32  87 MISG      29.77R
TRACY          CLOUDY    38  35  88 NW23      29.80R
$$
MNZ065>067-074>077-082>085-091>093-111600-
   South Central Minnesota

CITY           SKY/WX    TMP DP  RH WIND       PRES   REMARKS
MANKATO        CLOUDY    36  28  73 NW13      29.73R
NEW ULM        CLOUDY    37  30  75 NW24G30   29.74R
ST JAMES       CLOUDY    37  34  87 NW22G31   29.76R
FAIRMONT       CLOUDY    37  32  82 NW24G31   29.75R
GLENCOE        CLOUDY    34  33  96 NW9       29.72R WCI  26
FARIBAULT      CLOUDY    32  30  93 CALM      29.71F
WASECA         CLOUDY    32  30  93 SW6       29.73S WCI  26
ALBERT LEA     LGT SNOW  32  28  86 W3        29.71F
$$
MNZ078>079-086>088-094>096-111600-
   Southeast Minnesota

CITY           SKY/WX    TMP DP  RH WIND       PRES   REMARKS
ROCHESTER      LGT SNOW  30  30 100 S7        29.70F FOG     WCI  23
RED WING       LGT SNOW  30  25  80 CALM      29.73R
STANTON        LGT SNOW  33  31  91 S3        29.70F
DODGE CENTER   MIX PCPN  30  30 100 SW8       29.70F WCI  23
WINONA         CLOUDY    30  27  86 CALM      29.76S
AUSTIN         MIX PCPN  30  27  86 CALM      29.72S
PRESTON        CLOUDY    28  24  82 SW6       29.73R WCI  22
$$
ABBREVIATIONS USED IN REMARKS
   TC - TEMPERATURES IN CELSIUS
  WCI - WIND CHILL INDEX
   HX - HEAT INDEX
  VSB - VISIBILITY
$$



USA.gov is the U.S. government's official web portal to all federal, state and local government web resources and services.